BAW673 LGTS-EGLL

Flight info

Callsign BAW673
Flight time N/A
Altitude 38000
Route EDASI N146 BEKVA DCT MAVAR DCT GACMO DCT RASTU DCT ALIVO DCT RIFEN DCT SAFFA DCT ELMUR L613 HOC DCT LUL DCT RLP DCT ROTSI DCT KOTUN DCT NINAL DCT ABNUR DCT DIMAL DCT ALESO
Aircraft A320/M-SDE3FGHIRWY/LB1

Departure

Time N/A
Airport Thessaloniki Macedonia International Airport (LGTS)

Arrival

Time 2026-05-06 19:23
Airport London Heathrow Airport (EGLL)
Time Latitude Longitude Altitude Speed Heading
2026-05-06 18:13 47.48405 7.56170 37934 ft 442 kts 280°
2026-05-06 18:13 47.49145 7.51755 37954 ft 442 kts 281°
2026-05-06 18:13 47.50617 7.42918 37936 ft 443 kts 281°
2026-05-06 18:14 47.52088 7.34060 37925 ft 443 kts 281°
2026-05-06 18:14 47.53546 7.25202 37925 ft 443 kts 281°
2026-05-06 18:15 47.55002 7.16329 37928 ft 443 kts 281°
2026-05-06 18:15 47.56452 7.07450 37943 ft 444 kts 281°
2026-05-06 18:16 47.57892 6.98553 37938 ft 444 kts 281°
2026-05-06 18:16 47.59332 6.89644 37937 ft 445 kts 280°
2026-05-06 18:17 47.60765 6.80734 37941 ft 445 kts 280°
2026-05-06 18:17 47.62187 6.71859 37937 ft 445 kts 280°
2026-05-06 18:18 47.63607 6.62915 37935 ft 446 kts 280°
2026-05-06 18:18 47.65016 6.53956 37925 ft 447 kts 280°
2026-05-06 18:19 47.66432 6.44976 37921 ft 447 kts 280°
2026-05-06 18:19 47.67834 6.35990 37925 ft 447 kts 280°
2026-05-06 18:20 47.69270 6.26993 37943 ft 448 kts 283°
2026-05-06 18:20 47.71085 6.18169 37934 ft 450 kts 286°
2026-05-06 18:21 47.73091 6.09363 37925 ft 450 kts 286°
2026-05-06 18:21 47.75028 6.00517 37927 ft 450 kts 285°
2026-05-06 18:22 47.76887 5.91639 37927 ft 450 kts 284°
2026-05-06 18:22 47.78733 5.82738 37938 ft 450 kts 285°
2026-05-06 18:23 47.80580 5.73845 37937 ft 450 kts 285°
2026-05-06 18:23 47.82427 5.64940 37936 ft 450 kts 285°
2026-05-06 18:24 47.84269 5.56051 37939 ft 450 kts 285°
2026-05-06 18:24 47.86105 5.47137 37947 ft 450 kts 285°
2026-05-06 18:25 47.87925 5.38215 37947 ft 450 kts 285°
2026-05-06 18:25 47.89757 5.29353 37944 ft 451 kts 288°
2026-05-06 18:26 47.92897 5.21245 37945 ft 457 kts 308°
2026-05-06 18:26 47.97177 5.14215 37941 ft 458 kts 310°
2026-05-06 18:27 48.01452 5.07149 37950 ft 458 kts 310°
2026-05-06 18:27 48.05718 5.00072 37947 ft 458 kts 310°
2026-05-06 18:28 48.09987 4.92975 37950 ft 459 kts 310°
2026-05-06 18:28 48.14248 4.85879 37949 ft 459 kts 310°
2026-05-06 18:29 48.18518 4.78770 37950 ft 459 kts 310°
2026-05-06 18:29 48.22774 4.71645 37948 ft 459 kts 310°
2026-05-06 18:30 48.26998 4.64554 37957 ft 459 kts 310°
2026-05-06 18:30 48.31265 4.57408 37954 ft 459 kts 310°
2026-05-06 18:31 48.35510 4.50251 37954 ft 459 kts 310°
2026-05-06 18:31 48.39026 4.44290 37952 ft 459 kts 310°
2026-05-06 18:32 48.43261 4.37100 37949 ft 459 kts 310°
2026-05-06 18:32 48.47498 4.29913 37961 ft 459 kts 310°
2026-05-06 18:33 48.51729 4.22725 37956 ft 458 kts 310°
2026-05-06 18:33 48.55947 4.15521 37955 ft 458 kts 310°
2026-05-06 18:34 48.60154 4.08307 37950 ft 457 kts 310°
2026-05-06 18:34 48.64356 4.01080 37943 ft 457 kts 310°
2026-05-06 18:35 48.68549 3.93849 37942 ft 457 kts 310°
2026-05-06 18:35 48.72746 3.86619 37956 ft 457 kts 310°
2026-05-06 18:36 48.77194 3.79702 37970 ft 458 kts 314°
2026-05-06 18:36 48.81820 3.73061 37966 ft 458 kts 315°
2026-05-06 18:37 48.86432 3.66381 37966 ft 458 kts 314°
2026-05-06 18:37 48.90974 3.59593 37951 ft 458 kts 314°
2026-05-06 18:38 48.95459 3.52799 37963 ft 458 kts 314°
2026-05-06 18:38 48.99982 3.45969 37966 ft 458 kts 314°
2026-05-06 18:39 49.04508 3.39150 37968 ft 458 kts 314°
2026-05-06 18:40 49.11285 3.28905 37971 ft 457 kts 314°
2026-05-06 18:40 49.15793 3.22055 37970 ft 457 kts 314°
2026-05-06 18:41 49.20290 3.15194 37971 ft 457 kts 314°
2026-05-06 18:41 49.24782 3.08328 37974 ft 456 kts 314°
2026-05-06 18:42 49.29275 3.01459 37974 ft 456 kts 314°
2026-05-06 18:42 49.33730 2.94625 37969 ft 456 kts 314°
2026-05-06 18:43 49.38200 2.87729 37965 ft 456 kts 314°
2026-05-06 18:43 49.42674 2.80832 37964 ft 455 kts 314°
2026-05-06 18:44 49.47136 2.73927 37975 ft 455 kts 313°
2026-05-06 18:44 49.51587 2.67001 37976 ft 455 kts 313°
2026-05-06 18:45 49.56031 2.60070 37981 ft 454 kts 313°
2026-05-06 18:45 49.60498 2.53183 37982 ft 454 kts 318°
2026-05-06 18:46 49.65511 2.47233 37983 ft 454 kts 322°
2026-05-06 18:46 49.70542 2.41329 37976 ft 454 kts 321°
2026-05-06 18:47 49.75563 2.35399 37969 ft 454 kts 321°
2026-05-06 18:47 49.80593 2.29475 37975 ft 454 kts 321°
2026-05-06 18:48 49.85579 2.23586 37969 ft 450 kts 321°
2026-05-06 18:48 49.90569 2.17671 37960 ft 439 kts 321°
2026-05-06 18:49 49.95413 2.11916 37966 ft 438 kts 321°
2026-05-06 18:49 50.00251 2.06138 37964 ft 438 kts 321°
2026-05-06 18:50 50.05089 2.00352 37970 ft 438 kts 321°
2026-05-06 18:50 50.09891 1.94603 37974 ft 439 kts 321°
2026-05-06 18:51 50.14720 1.88802 37532 ft 437 kts 321°
2026-05-06 18:51 50.17103 1.85872 36953 ft 436 kts 317°
2026-05-06 18:51 50.19275 1.82619 36515 ft 432 kts 315°
2026-05-06 18:51 50.21432 1.79324 35803 ft 434 kts 315°
2026-05-06 18:52 50.23586 1.76049 35400 ft 430 kts 315°
2026-05-06 18:52 50.25725 1.72806 34939 ft 426 kts 315°
2026-05-06 18:52 50.27845 1.69585 34468 ft 423 kts 315°
2026-05-06 18:52 50.29946 1.66380 33997 ft 421 kts 316°
2026-05-06 18:53 50.32035 1.63188 33474 ft 418 kts 315°
2026-05-06 18:53 50.34099 1.60025 33013 ft 413 kts 315°
2026-05-06 18:53 50.36138 1.56891 32543 ft 409 kts 315°
2026-05-06 18:53 50.38156 1.53786 32079 ft 405 kts 315°
2026-05-06 18:54 50.40159 1.50702 31609 ft 401 kts 315°
2026-05-06 18:54 50.42162 1.47618 30759 ft 403 kts 314°
2026-05-06 18:54 50.44123 1.44598 30360 ft 389 kts 314°
2026-05-06 18:54 50.46017 1.41672 29910 ft 387 kts 314°
2026-05-06 18:55 50.47927 1.38717 29471 ft 384 kts 314°
2026-05-06 18:55 50.49815 1.35778 29058 ft 380 kts 313°
2026-05-06 18:55 50.51642 1.32798 28652 ft 377 kts 312°
2026-05-06 18:55 50.53415 1.29786 28263 ft 375 kts 311°
2026-05-06 18:56 50.55163 1.26760 27876 ft 372 kts 311°
2026-05-06 18:56 50.56902 1.23745 27468 ft 370 kts 311°
2026-05-06 18:56 50.58643 1.20775 27077 ft 368 kts 312°
2026-05-06 18:56 50.60423 1.17892 26684 ft 366 kts 314°
2026-05-06 18:57 50.62225 1.15071 26288 ft 364 kts 314°
2026-05-06 18:57 50.64026 1.12277 25898 ft 362 kts 314°
2026-05-06 18:57 50.65816 1.09495 25487 ft 361 kts 314°
2026-05-06 18:57 50.67638 1.06648 25070 ft 359 kts 314°
2026-05-06 18:58 50.69361 1.03937 24665 ft 358 kts 314°
2026-05-06 18:58 50.71110 1.01165 24237 ft 356 kts 314°
2026-05-06 18:58 50.72854 0.98393 23817 ft 355 kts 313°
2026-05-06 18:58 50.74590 0.95627 23348 ft 354 kts 313°
2026-05-06 18:59 50.78191 0.89889 22420 ft 348 kts 313°
2026-05-06 18:59 50.79886 0.87186 21987 ft 345 kts 313°
2026-05-06 18:59 50.81565 0.84501 21555 ft 342 kts 313°
2026-05-06 19:00 50.83234 0.81827 21137 ft 340 kts 313°
2026-05-06 19:00 50.84886 0.79180 20715 ft 337 kts 313°
2026-05-06 19:00 50.86526 0.76550 20292 ft 335 kts 313°
2026-05-06 19:00 50.87615 0.74805 20019 ft 334 kts 313°
2026-05-06 19:01 50.89243 0.72194 19593 ft 332 kts 313°
2026-05-06 19:01 50.90863 0.69590 19169 ft 331 kts 313°
2026-05-06 19:01 50.92473 0.66997 18748 ft 329 kts 313°
2026-05-06 19:01 50.94079 0.64407 18329 ft 328 kts 314°
2026-05-06 19:02 50.95669 0.61842 17975 ft 323 kts 314°
2026-05-06 19:02 50.97228 0.59326 17559 ft 314 kts 313°
2026-05-06 19:02 50.98752 0.56858 17067 ft 313 kts 313°
2026-05-06 19:02 51.00276 0.54391 16658 ft 312 kts 314°
2026-05-06 19:03 51.01787 0.51943 16262 ft 310 kts 313°
2026-05-06 19:03 51.03290 0.49502 15867 ft 308 kts 314°
2026-05-06 19:03 51.04787 0.47070 15474 ft 307 kts 314°
2026-05-06 19:03 51.06277 0.44656 15131 ft 305 kts 314°
2026-05-06 19:04 51.07771 0.42271 14828 ft 304 kts 315°
2026-05-06 19:04 51.09269 0.39970 14535 ft 302 kts 316°
2026-05-06 19:04 51.10795 0.37670 14244 ft 302 kts 316°
2026-05-06 19:04 51.12317 0.35386 13927 ft 300 kts 316°
2026-05-06 19:05 51.13825 0.33111 13606 ft 298 kts 316°
2026-05-06 19:05 51.15322 0.30834 13274 ft 296 kts 316°
2026-05-06 19:05 51.16801 0.28572 12957 ft 293 kts 315°
2026-05-06 19:05 51.18263 0.26332 12640 ft 291 kts 315°
2026-05-06 19:06 51.19715 0.24106 12328 ft 288 kts 315°
2026-05-06 19:06 51.21158 0.21893 11997 ft 287 kts 316°
2026-05-06 19:06 51.22594 0.19692 11714 ft 285 kts 316°
2026-05-06 19:06 51.24019 0.17501 11410 ft 284 kts 316°
2026-05-06 19:07 51.25438 0.15316 11107 ft 282 kts 316°
2026-05-06 19:07 51.26845 0.13148 10812 ft 281 kts 316°
2026-05-06 19:07 51.28253 0.10974 10517 ft 280 kts 316°
2026-05-06 19:07 51.29649 0.08819 10221 ft 278 kts 316°
2026-05-06 19:08 51.31037 0.06671 9924 ft 278 kts 316°
2026-05-06 19:08 51.32364 0.04434 9619 ft 277 kts 305°
2026-05-06 19:08 51.33172 0.01697 9323 ft 277 kts 284°
2026-05-06 19:08 51.33474 -0.01378 8997 ft 277 kts 277°
2026-05-06 19:09 51.33656 -0.04408 8682 ft 276 kts 276°
2026-05-06 19:09 51.33816 -0.07454 8369 ft 274 kts 276°
2026-05-06 19:09 51.33978 -0.10525 8076 ft 273 kts 276°
2026-05-06 19:09 51.34134 -0.13499 8009 ft 272 kts 276°
2026-05-06 19:10 51.34283 -0.16525 8022 ft 273 kts 276°
2026-05-06 19:10 51.34433 -0.19548 8023 ft 273 kts 276°
2026-05-06 19:10 51.34587 -0.22573 8023 ft 274 kts 276°
2026-05-06 19:10 51.34745 -0.25600 7827 ft 271 kts 276°
2026-05-06 19:11 51.34897 -0.28598 7474 ft 270 kts 276°
2026-05-06 19:11 51.35054 -0.31589 7153 ft 269 kts 276°
2026-05-06 19:11 51.35211 -0.34550 7017 ft 263 kts 276°
2026-05-06 19:11 51.35363 -0.37382 7030 ft 250 kts 276°
2026-05-06 19:12 51.35495 -0.40098 7036 ft 247 kts 276°
2026-05-06 19:12 51.35631 -0.42841 7029 ft 248 kts 276°
2026-05-06 19:12 51.35769 -0.45588 7033 ft 247 kts 276°
2026-05-06 19:12 51.35900 -0.48330 6930 ft 246 kts 276°
2026-05-06 19:13 51.36021 -0.51045 6655 ft 245 kts 276°
2026-05-06 19:13 51.36142 -0.53757 6388 ft 244 kts 276°
2026-05-06 19:13 51.36271 -0.56462 6081 ft 243 kts 275°
2026-05-06 19:13 51.36404 -0.59164 5765 ft 243 kts 276°
2026-05-06 19:14 51.36529 -0.61858 5486 ft 242 kts 278°
2026-05-06 19:14 51.36652 -0.64539 5180 ft 242 kts 276°
2026-05-06 19:14 51.36791 -0.67200 5002 ft 240 kts 276°
2026-05-06 19:14 51.36926 -0.69804 5007 ft 230 kts 276°
2026-05-06 19:15 51.37044 -0.72286 4890 ft 219 kts 276°
2026-05-06 19:15 51.37162 -0.74677 4649 ft 212 kts 277°
2026-05-06 19:15 51.37305 -0.76994 4405 ft 206 kts 288°
2026-05-06 19:15 51.38004 -0.78889 4179 ft 196 kts 315°
2026-05-06 19:16 51.38974 -0.80349 4035 ft 187 kts 320°
2026-05-06 19:16 51.39945 -0.81693 4002 ft 184 kts 321°
2026-05-06 19:16 51.40928 -0.83011 3997 ft 185 kts 326°
2026-05-06 19:16 51.42107 -0.83664 4005 ft 180 kts 355°
2026-05-06 19:17 51.43307 -0.83278 3789 ft 179 kts 32°
2026-05-06 19:17 51.44248 -0.81970 3507 ft 181 kts 44°
2026-05-06 19:17 51.45109 -0.80495 3251 ft 181 kts 46°
2026-05-06 19:17 51.45954 -0.79007 3051 ft 179 kts 46°
2026-05-06 19:18 51.46784 -0.77529 2987 ft 174 kts 46°
2026-05-06 19:18 51.47429 -0.75959 3025 ft 167 kts 66°
2026-05-06 19:18 51.47615 -0.74146 3009 ft 167 kts 88°
2026-05-06 19:18 51.47624 -0.72290 2971 ft 166 kts 86°
2026-05-06 19:19 51.47637 -0.70443 2807 ft 165 kts 86°
2026-05-06 19:19 51.47648 -0.68641 2641 ft 162 kts 86°
2026-05-06 19:19 51.47658 -0.66821 2418 ft 163 kts 86°
2026-05-06 19:19 51.47669 -0.64999 2188 ft 163 kts 86°
2026-05-06 19:20 51.47678 -0.63186 1954 ft 162 kts 85°
2026-05-06 19:20 51.47687 -0.61383 1740 ft 162 kts 86°
2026-05-06 19:20 51.47697 -0.59591 1502 ft 157 kts 86°
2026-05-06 19:20 51.47705 -0.57928 1274 ft 144 kts 85°
2026-05-06 19:21 51.47714 -0.56359 1092 ft 139 kts 85°
2026-05-06 19:21 51.47720 -0.54815 882 ft 137 kts 85°
2026-05-06 19:21 51.47728 -0.53291 721 ft 136 kts 87°
2026-05-06 19:21 51.47733 -0.51787 533 ft 135 kts 86°
2026-05-06 19:22 51.47740 -0.50292 351 ft 133 kts 87°
2026-05-06 19:22 51.47750 -0.48811 162 ft 132 kts 85°
2026-05-06 19:22 51.47756 -0.47415 87 ft 112 kts 88°
2026-05-06 19:22 51.47759 -0.46444 89 ft 62 kts 89°
2026-05-06 19:23 51.47761 -0.45923 85 ft 37 kts 90°
2026-05-06 19:23 51.47761 -0.45586 85 ft 28 kts 95°
2026-05-06 19:23 51.47634 -0.45476 89 ft 18 kts 192°
2026-05-06 19:23 51.47597 -0.45648 86 ft 19 kts 268°
2026-05-06 19:24 51.47595 -0.45880 90 ft 22 kts 269°
2026-05-06 19:24 51.47594 -0.46137 89 ft 22 kts 270°
2026-05-06 19:24 51.47594 -0.46405 86 ft 26 kts 270°
2026-05-06 19:24 51.47592 -0.46712 86 ft 28 kts 270°
2026-05-06 19:25 51.47580 -0.47022 90 ft 27 kts 270°
2026-05-06 19:25 51.47582 -0.47338 90 ft 29 kts 270°
2026-05-06 19:25 51.47581 -0.47670 90 ft 30 kts 269°
2026-05-06 19:25 51.47581 -0.48000 88 ft 28 kts 272°
2026-05-06 19:26 51.47580 -0.48284 89 ft 25 kts 268°
2026-05-06 19:26 51.47531 -0.48470 87 ft 17 kts 187°
2026-05-06 19:26 51.47418 -0.48475 86 ft 17 kts 180°
2026-05-06 19:26 51.47325 -0.48474 86 ft 6 kts 180°
2026-05-06 19:27 51.47267 -0.48475 86 ft 15 kts 182°
2026-05-06 19:27 51.47122 -0.48474 86 ft 20 kts 179°
2026-05-06 19:27 51.47050 -0.48509 88 ft 8 kts 253°
2026-05-06 19:27 51.47048 -0.48559 89 ft 1 kts 270°
2026-05-06 19:28 51.47049 -0.48576 88 ft 0 kts 271°
2026-05-06 19:28 51.47049 -0.48582 90 ft 0 kts 270°
2026-05-06 19:28 51.47049 -0.48584 90 ft 0 kts 270°